Simultaneous Nadir Overpasses (SNOs) Predictions

Prediction of SNOs between AQUA and GOES-15 Satellite Orbit:

Table of predicted SNOs for the next 14.0 days since TLE Epoch: 3/17/2018
Index Date Time (AQUA) AQUA Lat,Lon GOES-15 Lat,Lon Distance(km) Time Diff (sec)
1 03/17/2018 22:35:46 -0.06,-134.86 -0.06,-134.97 12.55 80
2 03/19/2018 22:23:35 0.59,-131.91 -0.05,-134.90 340.34 80
3 03/20/2018 10:44:51 0.50,-137.07 0.06,-134.87 249.32 80
4 03/22/2018 10:32:39 -0.09,-134.10 0.06,-134.78 77.72 80
5 03/24/2018 10:20:27 -0.69,-131.14 0.06,-134.69 403.94 80
6 03/24/2018 22:41:51 -0.40,-136.33 -0.06,-134.67 187.85 80
7 03/26/2018 22:29:39 0.21,-133.37 -0.07,-134.57 137.77 80
8 03/27/2018 10:50:54 0.95,-138.51 0.07,-134.54 452.45 80
9 03/28/2018 22:17:26 0.77,-130.39 -0.07,-134.47 463.05 80
10 03/29/2018 10:38:42 0.34,-135.55 0.08,-134.44 127.28 80




NCC Satellite Simultaneous Nadir Overpasses (SNOs) Prediction Service
